#timestamp,LO_Frequency,Hit,StdDev 
1634954415.3,286046996.4,N
1634954435.1,286046996.4,N
1634954455.9,286046995.5,N
1634954475.7,286046993.3,N
1634954495.6,286046994.5,N
1634954515.4,286046995.7,N
1634954535.2,286046994.1,N
1634954555.1,286046993.5,N
1634954556.0,286046993.5,N
1634954575.8,286046996.0,N
1634954595.6,286046997.6,N
1634954615.5,286046999.5,N
1634954635.3,286047000.7,N
1634954655.2,286047001.2,N
1634954675.9,286046998.4,N
1634954695.7,286046995.2,N
1634954715.6,286046999.1,N
1634954735.4,286046997.1,N
1634954755.2,286046998.2,N
1634954775.1,286046999.6,N
1634954776.0,286046999.6,N
1634954795.8,286046999.3,N
1634954815.7,286046999.7,N
1634954835.5,286047002.2,N
1634954855.3,286047002.4,N
1634954875.2,286047004.1,N
1634954895.0,286046998.3,N
1634954895.9,286046998.3,N
1634954915.8,286046998.6,N
1634954935.6,286046999.2,N
1634954955.4,286047000.2,N
1634954975.3,286047000.9,N
1634954995.1,286046997.2,N
1634955015.9,286046997.4,N
1634955035.7,286046998.2,N
1634955055.5,286046999.7,N
1634955075.4,286047000.3,N
1634955125.2,286046999.3,E
1634955135.2,286046998.9,N
1634955155.9,286047002.8,P
1634955175.7,286046997.0,N
1634955195.6,286047000.3,N
1634955215.4,286047001.8,N
1634955235.2,286047004.2,N
1634955255.1,286046998.7,N
1634955256.0,286046998.7,N
1634955275.8,286046996.6,N
1634955295.7,286046996.8,N
1634955315.5,286046996.5,N
1634955335.3,286047001.2,N
1634955355.2,286047000.1,N
1634955375.0,286047003.6,N
1634955375.9,286047003.6,N
1634955395.8,286047002.4,N
1634955415.6,286046998.6,N
1634955435.4,286047002.4,N
1634955455.3,286047000.5,N
1634955475.1,286047000.1,N
1634955495.8,286047000.1,N
1634955515.7,286047001.9,N
1634955535.5,286047002.0,N
1634955555.4,286047001.5,N
1634955575.2,286047002.3,N
1634955595.0,286046996.8,N
1634955595.9,286046996.8,N
1634955615.8,286046999.3,N
1634955635.6,286046997.0,N
1634955655.4,286046998.1,N
1634955675.3,286047001.1,N
1634955695.1,286046998.6,N
1634955715.9,286046999.8,N
1634955735.7,286047004.2,N
1634955755.5,286047001.4,N
1634955775.4,286047004.2,N
1634955795.2,286047003.5,N
1634955815.1,286047005.0,N
1634955816.0,286047005.0,N
1634955835.8,286047005.0,N
1634955855.6,286046999.7,N
1634955875.5,286047001.0,N
1634955895.3,286046996.6,N
1634955915.1,286046998.3,N
1634955935.9,286046999.0,N
1634955955.7,286046998.7,N
1634955975.6,286047000.7,N
1634955995.4,286047002.6,N
1634956015.2,286047001.4,N
1634956035.1,286047003.5,N
1634956036.0,286047003.5,N
1634956055.8,286047003.5,N
1634956075.7,286047003.0,N
1634956095.5,286047006.7,N
1634956115.3,286047009.0,Y
1634956135.2,286047006.4,P
1634956155.0,286047006.3,N
1634956155.9,286047006.3,N
1634956175.7,286047003.1,N
1634956195.6,286047005.1,N
1634956215.4,286047003.7,N
1634956235.3,286047004.3,N
1634956255.1,286047004.4,N
1634956256.0,286047004.4,N
1634956275.8,286047001.7,N
1634956295.7,286046999.4,N
1634956315.5,286046998.3,N
1634956335.3,286047000.8,N
1634956355.2,286047002.7,N
1634956375.0,286047002.3,N
1634956375.9,286047002.3,N
1634956395.8,286047001.9,N
1634956415.6,286047001.8,N
1634956435.4,286047003.6,N
1634956455.3,286047003.1,N
1634956475.1,286047006.4,Y
1634956495.9,286047003.8,P
1634956515.7,286047005.7,P
1634956535.5,286047005.5,P
1634956555.4,286047005.5,Y
1634956575.2,286047002.6,P
1634956595.1,286047002.7,N
1634956596.0,286047002.7,P
1634956615.8,286047002.3,N
1634956635.6,286047000.3,N
1634956655.5,286046998.5,N
1634956675.3,286046999.1,N
1634956695.1,286046996.7,N
1634956715.9,286046997.9,N
1634956735.7,286047001.0,N
1634956755.6,286046998.6,N
1634956775.4,286046996.5,N
1634956795.2,286046999.3,N
1634956815.1,286046998.3,N
1634956816.0,286046998.3,N
1634956835.8,286047000.5,N
1634956855.6,286046999.6,N
1634956875.5,286046999.2,N
1634956895.3,286046999.3,N
1634956915.2,286046998.1,N
1634956935.9,286046997.3,N
1634956955.7,286046997.0,N
1634956975.6,286046993.5,Y
1634956995.4,286046994.4,P
1634957015.3,286046991.0,P
1634957035.1,286046990.8,N
1634957036.0,286046990.8,N
1634957055.8,286046994.4,N
1634957075.7,286046996.2,N
1634957095.5,286046995.3,N
1634957115.3,286046997.6,N
1634957135.2,286046995.7,N
1634957155.0,286046994.9,N
1634957155.9,286046994.9,N
1634957175.8,286046995.6,N
1634957195.6,286046995.5,N
1634957215.4,286046997.5,N
1634957235.3,286046997.6,N
1634957255.1,286046996.1,N
1634957275.8,286046994.2,N
1634957295.7,286046993.3,N
1634957315.5,286046994.8,N
1634957335.4,286046993.2,Y
1634957355.2,286046998.0,P
1634957375.0,286046998.4,N
1634957375.9,286046998.4,N
1634957395.8,286047002.8,N
1634957415.6,286047002.2,N
1634957435.4,286046999.9,N
1634957455.3,286047000.3,N
1634957475.1,286046998.7,N
1634957495.9,286046999.5,N
1634957515.7,286046998.1,N
1634957535.5,286046997.8,N
1634957555.4,286047000.8,N
1634957575.2,286047000.5,N
1634957595.0,286046999.5,N
1634957596.0,286046999.5,N
1634957615.8,286046994.9,N
1634957635.6,286046995.3,N
1634957655.5,286046995.9,N
1634957675.3,286046997.2,N
1634957695.1,286046995.3,N
1634957715.9,286046995.5,N
1634957735.7,286046993.4,N
1634957755.6,286046993.9,N
1634957775.4,286046994.3,N
1634957795.2,286046996.0,N
1634957815.1,286046995.8,N
1634957816.0,286046995.8,N
1634957835.8,286046994.7,N
1634957855.6,286046998.0,N
1634957875.5,286046996.5,N
1634957895.3,286046999.4,N
1634957915.2,286046998.5,N
1634957935.9,286046997.0,N
1634957955.7,286046998.2,N
1634957975.6,286046998.4,N
1634957995.4,286046995.1,N
